Regional Weather Roundup
Issued by NWS Newport/Morehead, NC

Current Version | Previous Version | Text Only | Print | Product List | Glossary On
Versions: 1 2 3 4 5 6 7 8 9 10 11 12 13 14 15 16 17 18 19 20 21 22 23 24 25 26 27 28 29 30 31 32 33 34 35 36 37 38 39 40 41 42 43 44 45 46 47 48 49 50
761
ASUS42 KMHX 270413
RWRMHX
WEATHER ROUNDUP FOR EASTERN NORTH CAROLINA
NATIONAL WEATHER SERVICE NEWPORT/MOREHEAD CITY NC
1200 AM EDT MON MAR 27 2017

NOTE: "FAIR" INDICATES FEW OR NO CLOUDS BELOW 12,000 FEET
WITH NO SIGNIFICANT WEATHER AND/OR OBSTRUCTIONS TO VISIBILITY

NCZ015>017-031-032-045>047-102-103-270500-
NORTH COAST

CITY           SKY/WX    TMP DP  RH WIND       PRES   REMARKS
EDENTON        CLEAR     61  55  81 CALM      30.20F
ELIZABETH CITY CLEAR     58  54  86 S7        30.20F
KITTY HAWK     NOT AVBL
MANTEO         PTCLDY    57  53  87 SE5       30.21F

$$

NCZ045>047-081-094-103-104-270500-
CENTRAL COAST

CITY           SKY/WX    TMP DP  RH WIND       PRES   REMARKS
FRISCO         PTCLDY    66  54  65 S8        30.22S

$$

NCZ095-097-098-100-101-270500-
SOUTHERN COAST

CITY           SKY/WX    TMP DP  RH WIND       PRES   REMARKS
BEAUFORT       CLEAR     65  58  78 SE6       30.20F
CEDAR ISLAND   NOT AVBL
JACKSONVILLE   PTCLDY    58  57  97 CALM      30.19S
PINEY ISLAND   CLEAR    N/A N/A N/A SE7       30.20F
WILMINGTON     CLEAR     56  53  90 CALM      30.19S


$$

NCZ011>013-027>030-043-044-078>080-089-090>093-098-270500-
COASTAL PLAIN

CITY           SKY/WX    TMP DP  RH WIND       PRES   REMARKS
AHOSKIE          N/A     59  55  84 S3        30.19S
CLINTON        PTCLDY    62  56  83 CALM      30.19S
ELIZABETHTOWN  PTCLDY    60  56  85 SE5       30.18F
GOLDSBORO      CLOUDY    61  56  84 SE3       30.17F
GREENVILLE     PTCLDY    59  55  88 S6        30.20F
HAVELOCK       CLEAR     62  56  80 SE6       30.21F
KENANSVILLE    PTCLDY    54  52  94 CALM      30.20S
KINSTON        PTCLDY    59  53  82 CALM      30.20F
NEW BERN       CLEAR     55  54  96 CALM      30.21F
RICHLANDS      PTCLDY    53  51  93 CALM      30.20F
ROCKY MOUNT    PTCLDY    61  54  77 S5        30.18F
WASHINGTON     CLEAR     61  55  82 S3        30.20F
WHITEVILLE     PTCLDY    61  56  83 CALM      30.17F

$$

AMZ130-135-150-152-154-156-158-170-250-252-270-ANZ085-086-088-633-658-670-270500-
MARINE OBSERVATIONS

STATION/POSITION TIME  TEMP    WIND        PRES    WAVE   SWELL
                       AIR SEA DIR/SP/G            HT/PER HT/PER
                 (UTC) (F)     (DEG/KT/KT) (MB)    (FT/S) (FT/S)
CHESAPEAKE LIGHT NOT AVBL
64 E VA BEACH    0350   56 51  140/  6/  6 1023.2    4/ 8   3/ 8
DUCK             0348   53 47  150/ 14/ 14 1022.2
2 E DUCK         0400      50                N/A     3/ 7
OREGON INLET     0348          110/  5/  6   N/A
13E OREGON INLT  0348      51                N/A     3/ 7   3/ 7
HATTERAS CG      0348   66 60  160/  8/ 11 1022.9
DIAMOND BUOY     0350   69 76  150/ 16/ 17 1023.1    4/ 8   3/ 8
CAPE LOOKOUT     0400   66     150/ 10/ 10 1022.4
BEAUFORT LAB     0348   64 57  160/  5/  6 1021.8
30 SE NEW RVR IN 0308   66     160/  6/ 10 1023.1
30 SE NEW RVR IN 0343      64                N/A     3/ 9
27 SE WRIGHTSVLE 0308   67 63  190/ 10/ 12 1021.8
5 SE WRIGHTSVLE  0308   63 60  160/  6/ 10 1022.2
225 S CAPE HAT   0350   68 72  100/ 12/ 16 1023.1    5/ 9   5/ 9
41 SE CHARLESTON 0350   72 73  140/ 14/ 17 1021.1    5/10   3/10

$$




USA.gov is the U.S. government's official web portal to all federal, state and local government web resources and services.